• In Russia
  • List of Countries
  • For 7 days
  • Water Temperature
  • Weather Map
  • Weather Widgets
  • user-avatar
    Login

    Hourly Weather Kitzbuhel

    Today, 28 February, Friday

    Time Temperature Precipitation Wind Pressure Humidity
    00:00 -5°C° 0.7 mm 6 mps 664 mmHg 89%
    01:00 -5°C° 0 mm 5 mps 666 mmHg 93%
    02:00 -5°C° 1.4 mm 5 mps 667 mmHg 94%
    03:00 -5°C° 1.4 mm 4 mps 668 mmHg 95%
    04:00 -5°C° 1.4 mm 4 mps 669 mmHg 96%
    05:00 -5°C° 1.9 mm 4 mps 670 mmHg 96%
    06:00 -5°C° 1.9 mm 4 mps 671 mmHg 96%
    07:00 -5°C° 0 mm 4 mps 672 mmHg 96%
    08:00 -5°C° 0.8 mm 4 mps 673 mmHg 93%
    09:00 -5°C° 0.8 mm 4 mps 674 mmHg 89%
    10:00 -5°C° 0.8 mm 4 mps 675 mmHg 86%
    11:00 -4°C° 0.2 mm 3 mps 676 mmHg 82%
    12:00 -2°C° 0.2 mm 3 mps 676 mmHg 79%
    13:00 -1°C° 0 mm 2 mps 677 mmHg 77%
    14:00 +1°C° 0.1 mm 1 mps 676 mmHg 76%
    15:00 +1°C° 0.1 mm 1 mps 676 mmHg 75%
    16:00 0°C° 0.1 mm 0 mps 676 mmHg 74%
    17:00 -1°C° 0 mm 1 mps 676 mmHg 74%
    18:00 -5°C° 0 mm 2 mps 676 mmHg 74%
    19:00 -6°C° 0 mm 2 mps 676 mmHg 75%
    20:00 -6°C° 0 mm 2 mps 676 mmHg 73%
    21:00 -7°C° 0 mm 3 mps 676 mmHg 71%
    22:00 -7°C° 0 mm 3 mps 675 mmHg 69%
    23:00 -6°C° 0 mm 3 mps 675 mmHg 68%

    Tomorrow, 29 February, Saturday

    Time Temperature Precipitation Wind Pressure Humidity
    00:00 -6°C° 0 mm 3 mps 675 mmHg 68%
    01:00 -5°C° 0 mm 3 mps 675 mmHg 68%
    02:00 -5°C° 0 mm 3 mps 675 mmHg 69%
    03:00 -5°C° 0 mm 3 mps 674 mmHg 69%
    04:00 -5°C° 0 mm 4 mps 673 mmHg 70%
    05:00 -5°C° 0 mm 4 mps 673 mmHg 71%
    06:00 -4°C° 0 mm 4 mps 673 mmHg 71%
    07:00 -4°C° 0 mm 4 mps 672 mmHg 72%
    08:00 -2°C° 0 mm 3 mps 672 mmHg 74%
    09:00 0°C° 0 mm 3 mps 672 mmHg 76%
    10:00 +1°C° 0 mm 3 mps 671 mmHg 78%
    11:00 +2°C° 0 mm 3 mps 671 mmHg 81%
    12:00 +3°C° 0 mm 3 mps 670 mmHg 84%
    13:00 +4°C° 0 mm 4 mps 669 mmHg 86%
    14:00 +4°C° 0 mm 3 mps 669 mmHg 86%
    15:00 +3°C° 0 mm 3 mps 668 mmHg 85%
    16:00 +3°C° 0 mm 3 mps 668 mmHg 85%
    17:00 +1°C° 0 mm 3 mps 668 mmHg 84%
    18:00 0°C° 0 mm 3 mps 668 mmHg 83%
    19:00 -2°C° 0 mm 3 mps 668 mmHg 82%
    20:00 -2°C° 0 mm 3 mps 668 mmHg 81%
    21:00 -2°C° 0 mm 3 mps 668 mmHg 81%
    22:00 -2°C° 0 mm 3 mps 667 mmHg 81%
    23:00 -4°C° 0 mm 3 mps 667 mmHg 81%

    Day after tomorrow, 1 March, Sunday

    Time Temperature Precipitation Wind Pressure Humidity
    00:00 -4°C° 0 mm 3 mps 668 mmHg 81%
    01:00 -4°C° 0 mm 3 mps 668 mmHg 81%
    02:00 -3°C° 0 mm 2 mps 667 mmHg 82%
    03:00 -3°C° 0 mm 2 mps 667 mmHg 82%
    04:00 -3°C° 0 mm 2 mps 667 mmHg 83%
    05:00 -3°C° 0 mm 2 mps 667 mmHg 83%
    06:00 -3°C° 0 mm 2 mps 667 mmHg 84%
    07:00 -1°C° 0 mm 1 mps 667 mmHg 84%
    08:00 0°C° 0 mm 1 mps 667 mmHg 85%
    09:00 +2°C° 0 mm 1 mps 667 mmHg 86%
    10:00 +2°C° 0 mm 0 mps 667 mmHg 87%
    11:00 +3°C° 0.4 mm 1 mps 667 mmHg 90%
    12:00 +3°C° 0.4 mm 1 mps 667 mmHg 93%
    13:00 +3°C° 0.4 mm 1 mps 666 mmHg 96%
    14:00 +3°C° 0.6 mm 1 mps 666 mmHg 96%
    15:00 +3°C° 0.6 mm 1 mps 665 mmHg 96%
    16:00 +3°C° 0.6 mm 1 mps 665 mmHg 96%
    17:00 +2°C° 0.1 mm 1 mps 665 mmHg 95%
    18:00 +1°C° 0.1 mm 1 mps 664 mmHg 94%
    19:00 0°C° 0.1 mm 1 mps 664 mmHg 93%
    20:00 -1°C° 0 mm 1 mps 664 mmHg 92%
    21:00 -3°C° 0 mm 2 mps 663 mmHg 90%
    22:00 -3°C° 0 mm 2 mps 663 mmHg 89%
    23:00 -3°C° 0 mm 2 mps 663 mmHg 88%

    2 March, Monday

    Time Temperature Precipitation Wind Pressure Humidity
    00:00 -3°C° 0 mm 2 mps 662 mmHg 88%
    01:00 -3°C° 0 mm 2 mps 662 mmHg 87%
    02:00 -2°C° 1 mm 2 mps 662 mmHg 90%
    03:00 -2°C° 1 mm 2 mps 662 mmHg 94%
    04:00 0°C° 1 mm 1 mps 662 mmHg 97%
    05:00 0°C° 0.3 mm 1 mps 662 mmHg 95%
    06:00 -1°C° 0.3 mm 1 mps 663 mmHg 93%
    07:00 -1°C° 0.3 mm 1 mps 663 mmHg 91%
    08:00 +1°C° 0 mm 1 mps 663 mmHg 89%
    09:00 +2°C° 0 mm 1 mps 663 mmHg 87%
    10:00 +3°C° 0 mm 1 mps 663 mmHg 85%
    11:00 +4°C° 0 mm 1 mps 663 mmHg 85%
    12:00 +5°C° 0 mm 1 mps 663 mmHg 86%
    13:00 +5°C° 0 mm 1 mps 663 mmHg 86%
    14:00 +4°C° 0 mm 2 mps 662 mmHg 88%
    15:00 +4°C° 0 mm 2 mps 662 mmHg 89%
    16:00 +4°C° 0 mm 2 mps 661 mmHg 91%
    17:00 +3°C° 0 mm 2 mps 661 mmHg 90%
    18:00 +2°C° 0 mm 2 mps 661 mmHg 88%
    19:00 -1°C° 0 mm 2 mps 661 mmHg 87%
    20:00 -1°C° 0 mm 2 mps 661 mmHg 87%
    21:00 -1°C° 0 mm 2 mps 661 mmHg 86%
    22:00 -2°C° 0 mm 2 mps 661 mmHg 85%
    23:00 -2°C° 0 mm 2 mps 661 mmHg 85%

    3 March, Tuesday

    Time Temperature Precipitation Wind Pressure Humidity
    00:00 0°C° 0 mm 1 mps 661 mmHg 85%
    01:00 -1°C° 0 mm 0 mps 661 mmHg 85%
    02:00 -1°C° 0.1 mm 0 mps 661 mmHg 89%
    03:00 -1°C° 0.1 mm 0 mps 661 mmHg 93%
    04:00 -1°C° 0.1 mm 0 mps 662 mmHg 96%
    05:00 -1°C° 0.7 mm 0 mps 662 mmHg 97%
    06:00 0°C° 0.7 mm 0 mps 662 mmHg 97%
    07:00 0°C° 0.7 mm 0 mps 663 mmHg 98%
    08:00 +1°C° 1.4 mm 1 mps 664 mmHg 98%
    09:00 +2°C° 1.4 mm 1 mps 664 mmHg 98%
    10:00 +2°C° 1.4 mm 1 mps 665 mmHg 98%
    11:00 +1°C° 1 mm 2 mps 665 mmHg 98%
    12:00 +1°C° 1 mm 2 mps 666 mmHg 98%
    13:00 +2°C° 1 mm 2 mps 666 mmHg 98%
    14:00 +1°C° 0.5 mm 2 mps 666 mmHg 97%
    15:00 +1°C° 0.5 mm 2 mps 666 mmHg 97%
    16:00 +2°C° 0.5 mm 1 mps 667 mmHg 97%
    17:00 +1°C° 0.4 mm 1 mps 667 mmHg 97%
    18:00 +1°C° 0.4 mm 1 mps 668 mmHg 98%
    19:00 +1°C° 0.4 mm 1 mps 668 mmHg 98%
    20:00 0°C° 0.3 mm 1 mps 669 mmHg 98%
    21:00 0°C° 0.3 mm 1 mps 669 mmHg 98%
    22:00 0°C° 0.3 mm 1 mps 669 mmHg 97%
    23:00 -1°C° 0.1 mm 1 mps 669 mmHg 98%

    4 March, Wednesday

    Time Temperature Precipitation Wind Pressure Humidity
    00:00 -1°C° 0.1 mm 1 mps 669 mmHg 98%
    01:00 -2°C° 0.1 mm 1 mps 669 mmHg 98%
    02:00 -2°C° 0.1 mm 1 mps 669 mmHg 97%
    03:00 -3°C° 0.1 mm 0 mps 668 mmHg 97%
    04:00 -4°C° 0.1 mm 0 mps 668 mmHg 97%
    05:00 -4°C° 0 mm 0 mps 668 mmHg 96%
    06:00 -4°C° 0 mm 1 mps 668 mmHg 95%
    07:00 -4°C° 0 mm 1 mps 667 mmHg 95%
    08:00 -2°C° 0 mm 1 mps 667 mmHg 91%
    09:00 -2°C° 0 mm 0 mps 667 mmHg 88%
    10:00 0°C° 0 mm 0 mps 667 mmHg 85%
    11:00 +1°C° 0 mm 0 mps 667 mmHg 85%
    12:00 +2°C° 0 mm 0 mps 666 mmHg 86%
    13:00 +3°C° 0 mm 1 mps 666 mmHg 86%
    14:00 +2°C° 0 mm 0 mps 666 mmHg 87%
    15:00 +2°C° 0 mm 0 mps 666 mmHg 87%
    16:00 +2°C° 0 mm 0 mps 666 mmHg 88%
    17:00 +1°C° 0 mm 0 mps 666 mmHg 90%
    18:00 0°C° 0 mm 0 mps 666 mmHg 92%
    19:00 -1°C° 0 mm 0 mps 666 mmHg 95%
    20:00 -1°C° 0 mm 0 mps 667 mmHg 93%
    21:00 0°C° 0 mm 1 mps 667 mmHg 91%
    22:00 0°C° 0 mm 1 mps 667 mmHg 90%
    23:00 0°C° 0.1 mm 1 mps 667 mmHg 91%
    Show more